This demonstration page uses our WeatherBlox Daily Observations layout. Learn more.

Left ArrowRight Arrow

39.51506, -84.39828

Hourly Observations for September 16, 2015

Temp ( °F °C ) Dew Point ( °F °C ) Humidity (%) Winds ( mph kmh ) Pressure ( in mb ) Visibility ( mi km ) Precip ( " mm )
12:15 am 00:15 Clear 57 13.8 53 11.9 88 88 Calm 30.33 1027 10 16.0934 0 0
12:35 am 00:35 Clear 57 13.8 53 11.8 88 88 Calm 30.33 1027 10 16.0934 0 0
12:55 am 00:55 Clear 57 13.8 53 11.8 88 88 Calm 30.33 1027 10 16.0934 0 0
1:15 am 01:15 Clear 57 13.8 53 11.8 88 88 Calm 30.33 1027 10 16.0934 0 0
1:35 am 01:35 Clear 56 13.1 52 11.1 88 88 Calm 30.33 1027 10 16.0934 0 0
1:55 am 01:55 Clear 55 12.8 52 10.9 88 88 Calm 30.33 1027 10 16.0934 0 0
2:15 am 02:15 Clear 55 12.5 51 10.6 88 88 Calm 30.33 1027 10 16.0934 0 0
2:35 am 02:35 Clear 55 12.5 51 10.6 88 88 Calm 30.33 1027 10 16.0934 0 0
2:55 am 02:55 Clear 55 12.5 51 10.6 88 88 Calm 30.33 1027 10 16.0934 0 0
3:15 am 03:15 Clear 55 12.5 51 10.5 88 88 Calm 30.33 1027 10 16.0934 0 0
3:35 am 03:35 Clear 55 12.5 51 10.6 88 88 Calm 30.33 1027 10 16.0934 0 0
3:55 am 03:55 Clear 55 12.5 51 10.6 88 88 Calm 30.33 1027 10 16.0934 0 0
4:15 am 04:15 Clear 55 12.5 51 10.6 88 88 Calm 30.33 1027 10 16.0934 0 0
4:35 am 04:35 Clear 55 12.5 51 10.6 88 88 Calm 30.33 1027 10 16.0934 0 0
4:55 am 04:55 Clear 55 12.5 51 10.6 88 88 Calm 30.33 1027 10 16.0934 0 0
5:15 am 05:15 Clear 55 12.5 51 10.6 88 88 Calm 30.33 1027 10 16.0934 0 0
5:35 am 05:35 Clear 55 12.5 51 10.7 89 89 Calm 30.33 1027 10 16.0934 0 0
5:55 am 05:55 Clear 54 12.4 51 10.7 89 89 Calm 30.33 1027 10 16.0934 0 0
6:15 am 06:15 Clear 55 12.5 51 10.7 89 89 Calm 30.33 1027 7 11.26538 0 0
6:35 am 06:35 Clear 55 12.5 51 10.7 89 89 Calm 30.33 1027 7 11.26538 0 0
6:55 am 06:55 Clear with Mist and Fog 51 10.8 49 9.2 90 90 Calm 30.33 1027 5 8.0467 0 0
7:15 am 07:15 Clear with Mist and Fog 52 11 49 9.5 91 91 Calm 30.33 1027 4 6.43736 0 0
7:35 am 07:35 Sunny 51 10.5 48 8.9 90 90 N 3 6 30.33 1027 7 11.26538 0 0
7:55 am 07:55 Sunny 52 11.3 50 9.8 91 91 Calm 30.36 1028 7 11.26538 0 0
8:15 am 08:15 Sunny 55 12.5 51 10.8 89 89 Calm 30.36 1028 10 16.0934 0 0
8:35 am 08:35 Sunny 56 13.6 54 12 90 90 Calm 30.36 1028 10 16.0934 0 0
8:55 am 08:55 Sunny 59 15.1 56 13.4 90 90 Calm 30.36 1028 10 16.0934 0 0
9:15 am 09:15 Sunny 60 15.7 55 13 84 84 Calm 30.36 1028 10 16.0934 0 0
9:35 am 09:35 Sunny 62 16.6 55 13 79 79 Calm 30.36 1028 10 16.0934 0 0
9:55 am 09:55 Sunny 67 19.4 59 14.8 75 75 Calm 30.33 1027 10 16.0934 0 0
10:15 am 10:15 Sunny 69 20.8 59 14.8 69 69 Calm 30.33 1027 10 16.0934 0 0
10:35 am 10:35 Sunny 69 20.8 56 13.4 63 63 Calm 30.33 1027 10 16.0934 0 0
10:55 am 10:55 Sunny 74 23.6 59 15 59 59 Calm 30.33 1027 10 16.0934 0 0
11:15 am 11:15 Sunny 74 23.6 56 13.5 53 53 W 3 6 30.33 1027 10 16.0934 0 0
11:35 am 11:35 Sunny 75 23.7 56 13.3 52 52 WSW 5 7 30.33 1027 10 16.0934 0 0
11:55 am 11:55 Sunny 77 25.1 57 13.7 49 49 SW 3 6 30.3 1026 10 16.0934 0 0
12:15 pm 12:15 Sunny 77 25.1 55 12.6 46 46 WSW 5 7 30.3 1026 10 16.0934 0 0
12:35 pm 12:35 Sunny 80 26.5 55 12.6 42 42 SW 8 13 30.3 1026 10 16.0934 0 0
12:55 pm 12:55 Sunny 80 26.5 54 12 41 41 SW 8 13 30.3 1026 10 16.0934 0 0
1:15 pm 13:15 Sunny 80 26.5 53 11.6 39 39 SSW 6 9 30.3 1026 10 16.0934 0 0
1:35 pm 13:35 Sunny 80 26.9 52 10.9 37 37 SW 5 7 30.27 1025 10 16.0934 0 0
1:55 pm 13:55 Sunny 81 27.2 51 10.3 35 35 SW 9 15 30.27 1025 10 16.0934 0 0
2:15 pm 14:15 Sunny 82 27.6 50 10.1 33 33 S 12 19 30.27 1025 10 16.0934 0 0
2:35 pm 14:35 Sunny 82 27.9 48 9 31 31 SSW 9 15 30.27 1025 10 16.0934 0 0
2:55 pm 14:55 Sunny 82 28 49 9.4 31 31 S 6 9 30.24 1024 10 16.0934 0 0
3:15 pm 15:15 Sunny 82 28 49 9.4 31 31 SSW 10 17 30.24 1024 10 16.0934 0 0
3:35 pm 15:35 Sunny 82 28 47 8.6 30 30 S 7 11 30.24 1024 10 16.0934 0 0
3:55 pm 15:55 Sunny 82 28 47 8.5 29 29 SSW 9 15 30.21 1023 10 16.0934 0 0
4:15 pm 16:15 Sunny 82 28 47 8.6 30 30 SW 5 7 30.21 1023 10 16.0934 0 0
4:35 pm 16:35 Sunny 82 28 47 8.4 29 29 S 5 7 30.21 1023 10 16.0934 0 0
4:55 pm 16:55 Sunny 82 28 48 8.8 30 30 SSW 8 13 30.21 1023 10 16.0934 0 0
5:15 pm 17:15 Sunny 82 28 49 9.7 32 32 SSW 5 7 30.21 1023 10 16.0934 0 0
5:35 pm 17:35 Sunny 82 28 49 9.6 32 32 S 8 13 30.21 1023 10 16.0934 0 0
5:55 pm 17:55 Sunny 81 27.2 50 9.9 34 34 SSW 8 13 30.21 1023 10 16.0934 0 0
6:15 pm 18:15 Sunny 81 27.2 51 10.6 35 35 S 5 7 30.21 1023 10 16.0934 0 0
6:35 pm 18:35 Sunny 81 27.2 50 10.1 34 34 S 5 7 30.18 1022 10 16.0934 0 0
6:55 pm 18:55 Sunny 80 26.5 53 11.6 39 39 SSW 3 6 30.18 1022 10 16.0934 0 0
7:15 pm 19:15 Sunny 80 26.5 50 9.9 35 35 SW 3 6 30.18 1022 10 16.0934 0 0
7:35 pm 19:35 Sunny 74 23.6 58 14.7 58 58 Calm 30.18 1022 10 16.0934 0 0
7:55 pm 19:55 Clear 69 20.8 60 15.6 72 72 Calm 30.18 1022 10 16.0934 0 0
8:15 pm 20:15 Clear 69 20.8 62 16.5 77 77 Calm 30.18 1022 10 16.0934 0 0
8:35 pm 20:35 Clear 67 19.5 61 16.1 81 81 Calm 30.18 1022 10 16.0934 0 0
8:55 pm 20:55 Clear 64 18 60 15.4 85 85 Calm 30.18 1022 10 16.0934 0 0
9:15 pm 21:15 Clear 62 16.9 58 14.3 85 85 Calm 30.21 1023 10 16.0934 0 0
9:35 pm 21:35 Clear 64 18 59 15 83 83 Calm 30.21 1023 10 16.0934 0 0
9:55 pm 21:55 Clear 62 16.6 57 13.9 84 84 Calm 30.21 1023 10 16.0934 0 0
10:15 pm 22:15 Clear 61 16.3 57 13.8 85 85 N 3 6 30.21 1023 10 16.0934 0 0
10:35 pm 22:35 Clear 60 15.5 56 13.2 86 86 Calm 30.21 1023 10 16.0934 0 0
10:55 pm 22:55 Clear 60 15.5 56 13.3 87 87 Calm 30.21 1023 10 16.0934 0 0
11:15 pm 23:15 Clear 60 15.3 56 13.3 88 88 Calm 30.21 1023 10 16.0934 0 0
11:35 pm 23:35 Clear 60 15.3 56 13.2 87 87 Calm 30.21 1023 10 16.0934 0 0
11:55 pm 23:55 Clear 60 15.3 56 13.2 87 87 NW 3 6 30.24 1024 10 16.0934 0 0

Powered by AerisWeather